When you browse on this site, cookies collect data to enhance your experience and personalize the content and advertising you see.
Visit our Privacy Policy to learn more. By continuing to use the site, you agree to this use of cookies and data.
  • en France
  • Liste des pays
  • À 7 jours
  • Température de l'eau
  • Carte météo
  • Widgets météo
  • user-avatar
    Se connecter

    Météo par heure à Saint Austell

    Ce jour, 25 Mai, Lundi

    Heure Température Précipitation Vent Pression Humidité
    00:00 +8°C° 0 mm 1 m/s 768 mmHg 87%
    01:00 +8°C° 0 mm 1 m/s 768 mmHg 85%
    02:00 +8°C° 0 mm 1 m/s 768 mmHg 83%
    03:00 +8°C° 0 mm 1 m/s 768 mmHg 82%
    04:00 +9°C° 0 mm 1 m/s 768 mmHg 81%
    05:00 +10°C° 0 mm 1 m/s 768 mmHg 79%
    06:00 +12°C° 0 mm 1 m/s 768 mmHg 79%
    07:00 +13°C° 0 mm 2 m/s 769 mmHg 76%
    08:00 +15°C° 0 mm 2 m/s 769 mmHg 73%
    09:00 +16°C° 0 mm 3 m/s 769 mmHg 70%
    10:00 +17°C° 0 mm 3 m/s 769 mmHg 69%
    11:00 +17°C° 0 mm 3 m/s 769 mmHg 68%
    12:00 +18°C° 0 mm 3 m/s 769 mmHg 68%
    13:00 +18°C° 0 mm 3 m/s 769 mmHg 67%
    14:00 +18°C° 0 mm 3 m/s 769 mmHg 66%
    15:00 +18°C° 0 mm 2 m/s 769 mmHg 65%
    16:00 +18°C° 0 mm 2 m/s 769 mmHg 68%
    17:00 +17°C° 0 mm 2 m/s 769 mmHg 71%
    18:00 +18°C° 0 mm 1 m/s 769 mmHg 74%
    19:00 +15°C° 0 mm 1 m/s 769 mmHg 79%
    20:00 +12°C° 0 mm 0 m/s 769 mmHg 83%
    21:00 +10°C° 0 mm 0 m/s 770 mmHg 87%
    22:00 +10°C° 0 mm 0 m/s 769 mmHg 87%
    23:00 +9°C° 0 mm 0 m/s 769 mmHg 87%

    Demain, 26 Mai, Mardi

    Heure Température Précipitation Vent Pression Humidité
    00:00 +9°C° 0 mm 0 m/s 769 mmHg 87%
    01:00 +9°C° 0 mm 0 m/s 769 mmHg 86%
    02:00 +10°C° 0 mm 1 m/s 769 mmHg 85%
    03:00 +10°C° 0 mm 1 m/s 769 mmHg 84%
    04:00 +11°C° 0 mm 1 m/s 769 mmHg 83%
    05:00 +12°C° 0 mm 1 m/s 769 mmHg 82%
    06:00 +13°C° 0 mm 1 m/s 770 mmHg 81%
    07:00 +15°C° 0 mm 1 m/s 770 mmHg 77%
    08:00 +16°C° 0 mm 1 m/s 770 mmHg 73%
    09:00 +18°C° 0 mm 1 m/s 770 mmHg 69%
    10:00 +19°C° 0 mm 1 m/s 770 mmHg 66%
    11:00 +20°C° 0 mm 1 m/s 770 mmHg 63%
    12:00 +20°C° 0 mm 1 m/s 770 mmHg 61%
    13:00 +19°C° 0 mm 2 m/s 770 mmHg 62%
    14:00 +19°C° 0 mm 2 m/s 770 mmHg 63%
    15:00 +18°C° 0 mm 3 m/s 770 mmHg 65%
    16:00 +18°C° 0 mm 3 m/s 770 mmHg 69%
    17:00 +17°C° 0 mm 3 m/s 770 mmHg 73%
    18:00 +17°C° 0 mm 3 m/s 770 mmHg 77%
    19:00 +14°C° 0 mm 3 m/s 770 mmHg 82%
    20:00 +13°C° 0 mm 3 m/s 770 mmHg 88%
    21:00 +12°C° 0 mm 3 m/s 770 mmHg 94%
    22:00 +12°C° 0 mm 3 m/s 770 mmHg 95%
    23:00 +11°C° 0 mm 3 m/s 770 mmHg 96%

    Après-demain, 27 Mai, Mercredi

    Heure Température Précipitation Vent Pression Humidité
    00:00 +11°C° 0 mm 3 m/s 770 mmHg 96%
    01:00 +11°C° 0 mm 3 m/s 769 mmHg 96%
    02:00 +11°C° 0 mm 3 m/s 769 mmHg 96%
    03:00 +11°C° 0 mm 3 m/s 769 mmHg 96%
    04:00 +12°C° 0 mm 3 m/s 769 mmHg 96%
    05:00 +12°C° 0 mm 3 m/s 769 mmHg 95%
    06:00 +13°C° 0 mm 3 m/s 769 mmHg 94%
    07:00 +14°C° 0 mm 3 m/s 769 mmHg 89%
    08:00 +17°C° 0 mm 3 m/s 770 mmHg 85%
    09:00 +18°C° 0 mm 2 m/s 770 mmHg 80%
    10:00 +19°C° 0 mm 2 m/s 770 mmHg 80%
    11:00 +19°C° 0 mm 2 m/s 770 mmHg 79%
    12:00 +19°C° 0 mm 2 m/s 769 mmHg 78%
    13:00 +19°C° 0 mm 2 m/s 769 mmHg 77%
    14:00 +19°C° 0 mm 3 m/s 769 mmHg 76%
    15:00 +20°C° 0 mm 3 m/s 769 mmHg 76%
    16:00 +19°C° 0 mm 3 m/s 769 mmHg 77%
    17:00 +19°C° 0 mm 2 m/s 768 mmHg 78%
    18:00 +19°C° 0 mm 2 m/s 768 mmHg 78%
    19:00 +17°C° 0 mm 3 m/s 768 mmHg 81%
    20:00 +16°C° 0 mm 3 m/s 768 mmHg 84%
    21:00 +13°C° 0 mm 3 m/s 768 mmHg 87%
    22:00 +13°C° 0 mm 4 m/s 768 mmHg 87%
    23:00 +12°C° 0 mm 4 m/s 768 mmHg 87%

    28 Mai, Jeudi

    Heure Température Précipitation Vent Pression Humidité
    00:00 +12°C° 0 mm 4 m/s 768 mmHg 87%
    01:00 +12°C° 0 mm 5 m/s 767 mmHg 88%
    02:00 +12°C° 0 mm 5 m/s 767 mmHg 90%
    03:00 +11°C° 0 mm 6 m/s 767 mmHg 92%
    04:00 +11°C° 0 mm 6 m/s 767 mmHg 89%
    05:00 +11°C° 0 mm 6 m/s 767 mmHg 86%
    06:00 +11°C° 0 mm 7 m/s 766 mmHg 83%
    07:00 +12°C° 0 mm 7 m/s 766 mmHg 78%
    08:00 +14°C° 0 mm 7 m/s 766 mmHg 72%
    09:00 +15°C° 0 mm 7 m/s 766 mmHg 67%
    10:00 +16°C° 0 mm 8 m/s 766 mmHg 67%
    11:00 +16°C° 0 mm 8 m/s 766 mmHg 67%
    12:00 +17°C° 0 mm 8 m/s 765 mmHg 68%
    13:00 +17°C° 0 mm 8 m/s 765 mmHg 68%
    14:00 +16°C° 0 mm 8 m/s 765 mmHg 68%
    15:00 +16°C° 0 mm 8 m/s 764 mmHg 68%
    16:00 +15°C° 0 mm 8 m/s 764 mmHg 67%
    17:00 +15°C° 0 mm 8 m/s 764 mmHg 65%
    18:00 +13°C° 0 mm 8 m/s 763 mmHg 64%
    19:00 +12°C° 0 mm 8 m/s 763 mmHg 64%
    20:00 +12°C° 0 mm 8 m/s 763 mmHg 64%
    21:00 +11°C° 0 mm 8 m/s 763 mmHg 64%
    22:00 +11°C° 0 mm 8 m/s 763 mmHg 66%
    23:00 +11°C° 0 mm 8 m/s 763 mmHg 68%

    29 Mai, Vendredi

    Heure Température Précipitation Vent Pression Humidité
    00:00 +11°C° 0 mm 8 m/s 763 mmHg 70%
    01:00 +10°C° 0 mm 8 m/s 762 mmHg 74%
    02:00 +10°C° 0 mm 8 m/s 762 mmHg 78%
    03:00 +9°C° 0 mm 8 m/s 762 mmHg 83%
    04:00 +10°C° 0 mm 8 m/s 762 mmHg 83%
    05:00 +10°C° 0 mm 8 m/s 761 mmHg 84%
    06:00 +10°C° 0 mm 8 m/s 761 mmHg 84%
    07:00 +11°C° 0 mm 8 m/s 761 mmHg 80%
    08:00 +13°C° 0 mm 8 m/s 761 mmHg 77%
    09:00 +15°C° 0 mm 8 m/s 761 mmHg 73%
    10:00 +15°C° 0 mm 8 m/s 761 mmHg 71%
    11:00 +15°C° 0 mm 8 m/s 761 mmHg 68%
    12:00 +16°C° 0 mm 8 m/s 760 mmHg 65%
    13:00 +16°C° 0 mm 8 m/s 760 mmHg 64%
    14:00 +16°C° 0 mm 8 m/s 760 mmHg 62%
    15:00 +16°C° 0 mm 8 m/s 760 mmHg 61%
    16:00 +15°C° 0 mm 8 m/s 760 mmHg 63%
    17:00 +13°C° 0 mm 8 m/s 759 mmHg 65%
    18:00 +14°C° 0 mm 7 m/s 759 mmHg 67%
    19:00 +12°C° 0 mm 7 m/s 759 mmHg 67%
    20:00 +11°C° 0 mm 7 m/s 759 mmHg 66%
    21:00 +10°C° 0 mm 7 m/s 759 mmHg 66%
    22:00 +10°C° 0 mm 7 m/s 759 mmHg 70%
    23:00 +10°C° 0 mm 7 m/s 759 mmHg 74%

    30 Mai, Samedi

    Heure Température Précipitation Vent Pression Humidité
    00:00 +11°C° 0 mm 7 m/s 759 mmHg 78%
    01:00 +10°C° 0 mm 7 m/s 759 mmHg 82%
    02:00 +10°C° 0 mm 7 m/s 759 mmHg 86%
    03:00 +10°C° 0 mm 6 m/s 759 mmHg 90%
    04:00 +10°C° 0 mm 6 m/s 759 mmHg 90%
    05:00 +11°C° 0 mm 6 m/s 759 mmHg 90%
    06:00 +11°C° 0 mm 6 m/s 759 mmHg 90%
    07:00 +12°C° 0 mm 7 m/s 759 mmHg 86%
    08:00 +14°C° 0 mm 7 m/s 759 mmHg 82%
    09:00 +15°C° 0 mm 7 m/s 759 mmHg 79%
    10:00 +16°C° 0 mm 7 m/s 759 mmHg 76%
    11:00 +16°C° 0 mm 7 m/s 759 mmHg 74%
    12:00 +17°C° 0 mm 6 m/s 759 mmHg 72%
    13:00 +17°C° 0 mm 6 m/s 759 mmHg 71%
    14:00 +17°C° 0 mm 6 m/s 759 mmHg 70%
    15:00 +17°C° 0 mm 6 m/s 759 mmHg 69%
    16:00 +17°C° 0 mm 6 m/s 759 mmHg 71%
    17:00 +16°C° 0 mm 5 m/s 758 mmHg 73%
    18:00 +15°C° 0 mm 5 m/s 758 mmHg 74%
    19:00 +14°C° 0 mm 5 m/s 758 mmHg 79%
    20:00 +12°C° 0 mm 5 m/s 758 mmHg 83%
    21:00 +10°C° 0 mm 5 m/s 759 mmHg 87%
    22:00 +10°C° 0 mm 5 m/s 759 mmHg 87%
    23:00 +10°C° 0 mm 5 m/s 758 mmHg 86%
    Voir plus